Location: Albuquerque Trailhead
(34.7934°N, 106.3736°W)
Time: 03:10:34
(UTC+00:00)

Cosmos 2173 Rocket - Pass Details

Date: 20 June 2021
Orbit: 945 x 1000 km, 83.0° (Epoch: 29 July)

Event Time Altitude Azimuth Distance (km) Brightness Sun altitude
Rises 04:30:05 0° 352° (N) 3,728 8.1 -20.9°
Reaches altitude 10° 04:32:37 10° 351° (N) 2,776 7.2 -21.2°
Maximum altitude 04:39:00 78° 266° (W) 1,023 4.1 -22.0°
Enters shadow 04:42:02 33° 186° (S) 1,599 4.7 -22.4°
